Hourly Weather Roundup
Issued by NWS Central Illinois

Home | Current Version | Previous Version | Text Only | Print | Product List | Glossary On
Versions: 1 2 3 4 5 6 7 8 9 10 11 12 13 14 15 16 17 18 19 20 21 22 23 24 25 26 27 28 29 30 31 32 33 34 35 36 37 38 39 40 41 42 43 44 45 46 47 48 49 50
000
NZUS43 KILX 251310
HWRILX

AREA WEATHER ROUNDUP
NATIONAL WEATHER SERVICE, LINCOLN IL
800 AM CDT THU AUG 25 2016


CITY           SKY/WX    TMP DP  RH WIND       PRES   REMARKS
BLOOMINGTON    MOSUNNY   69  68  96 SW7       30.06R
CHAMPAIGN      SUNNY     71  68  90 SW7       30.07R
DANVILLE       RAIN      71  70  99 SW5       30.03S
DECATUR        SUNNY     72  68  87 SW8       30.06R
EFFINGHAM      SUNNY     76  76  99 S5        30.08R
FLORA          SUNNY     78  76  93 SW6       30.08R HX  81
GALESBURG      CLOUDY    70  69  98 W5        30.04S FOG
JACKSONVILLE   SUNNY     72  69  90 CALM      30.05S
LACON          CLOUDY    71  69  94 W6        30.03R
LAWRENCEVILLE  SUNNY     78  76  93 SW6       30.08R HX  81
LITCHFIELD     SUNNY     73  68  84 CALM      30.06S
$$


CITY           SKY/WX    TMP DP  RH WIND       PRES   REMARKS
LINCOLN        SUNNY     71  70  95 CALM      30.05S
MACOMB         CLOUDY    71  71  99 W7        30.06R
MATTOON        SUNNY     73  68  84 S7        30.06R
MT CARMEL AP   SUNNY     78  74  90 SW5       30.08S
OLNEY-NOBLE AP SUNNY     77  77 100 S5        30.08S
PARIS          SUNNY     74  71  91 CALM      30.07R
PEORIA         CLOUDY    72  72 100 SW5       30.03F FOG
PONTIAC        CLOUDY    72  71  97 W7        30.05R
RANTOUL        SUNNY     72  71  96 SW6       30.06R
ROBINSON       SUNNY     77  75  95 SW5       30.08S
SPRINGFIELD    SUNNY     72  68  87 SW3       30.06R
TAYLORVILLE    SUNNY     70  68  93 CALM      30.06S
$$

...REGIONAL REPORTS...


CITY           SKY/WX    TMP DP  RH WIND       PRES   REMARKS
CHICAGO O`HARE CLOUDY    72  69  90 W7        29.98R
KANKAKEE       SUNNY     73  70  91 SW7       30.03R
MOLINE         CLOUDY    73  66  78 N5        30.03R
MOUNT STERLING MOSUNNY   70  69  95 CALM      30.02F
MOUNT VERNON   SUNNY     75  72  88 SW7       30.09R
PITTSFIELD     SUNNY     72  70  94 S5        30.05S
QUINCY         CLOUDY    71  71 100 SW5       30.03F
ROCKFORD       CLOUDY    71  68  90 N6        30.03R
$$


CITY           SKY/WX    TMP DP  RH WIND       PRES   REMARKS
BURLINGTON     CLOUDY    70  70 100 NW3       30.03S
CEDAR RAPIDS   MOSUNNY   65  65 100 NW5       30.05R
DES MOINES     MOSUNNY   68  63  84 VRB3      30.06F
KIRKSVILLE     CLOUDY    71  69  93 CALM      30.04R
OTTUMWA        CLOUDY    70  65  84 N7        30.04F
ST LOUIS       MOSUNNY   80  70  71 S7        30.05F HX  83
$$


CITY           SKY/WX    TMP DP  RH WIND       PRES   REMARKS
TERRE HAUTE    SUNNY     79  74  84 S8        30.06S HX  82
EVANSVILLE     SUNNY     79  74  84 SW8       30.11R HX  82
INDIANAPOLIS   MOSUNNY   78  73  84 SW8       30.06R HX  81
LAFAYETTE      CLOUDY    70  70 100 W5        30.04R
MADISON        PTSUNNY   67  61  81 NW6       30.02S
MILWAUKEE      CLOUDY    71  68  90 NW6       29.98S
$$






USA.gov is the U.S. government's official web portal to all federal, state and local government web resources and services.